Location: Lake Sonoma
(38.7200°N, 123.0564°W)
Time: 19:17:28
(UTC-07:00)

Amateur Radio Satellites - All Passes

Search period start: 27 August 2016 18:47
Search period end: 28 August 2016 18:47
Location: Lake Sonoma, 38.7200°N, 123.0564°W

Satellite Date Start Highest point End Downlink Frequencies (MHz)
Time Altitude Azimuth
GOMX 1 27 Aug 18:50:54 18:55:57 85° 258° (WSW) 19:01:20 467.674
Cubesat XI-IV 27 Aug 18:55:12 19:00:33 74° 257° (WSW) 19:05:54 437.490
DOVE 4 27 Aug 18:57:41 19:02:40 53° 73° (ENE) 19:07:50 437.250
HORYU 2 27 Aug 18:59:31 18:59:49 10° 269° (W) 19:00:06 437.375
Cosmos 2491 27 Aug 19:05:50 19:14:33 86° 277° (W) 19:23:22 435.465 / 435.565
CUTE-I 27 Aug 19:07:13 19:12:27 57° 259° (W) 19:17:42 437.470
BEESAT 2 27 Aug 19:08:49 19:12:30 34° 53° (NE) 19:16:11 435.950
NOAA 15 27 Aug 19:08:50 19:13:46 42° 261° (W) 19:18:46 137.62
STARS 27 Aug 19:14:45 19:15:56 11° 298° (WNW) 19:17:09 437.465
BRITE-PL 27 Aug 19:16:41 19:20:22 22° 269° (W) 19:24:16 437.365/2234.400
LilacSat-2 27 Aug 19:16:48 19:20:17 32° 263° (W) 19:23:46 437.200
BEESAT 3 27 Aug 19:26:47 19:30:45 74° 240° (WSW) 19:34:41 437.485
YUBILEINY 27 Aug 19:28:05 19:35:46 36° 275° (W) 19:43:25 435.215
CINEMA 3 27 Aug 19:38:47 19:43:25 39° 72° (ENE) 19:48:03 145.822/145.860
Cosmos 2504 27 Aug 19:40:39 19:47:51 74° 266° (W) 19:54:59 435.465 / 435.565
STRAND 1 27 Aug 19:44:50 19:49:05 26° 96° (E) 19:53:19 437.568
HO-68 27 Aug 19:46:21 19:53:16 53° 68° (ENE) 20:00:12 435.675
NOAA 18 27 Aug 19:48:15 19:52:54 27° 264° (W) 19:57:35 137.9125
UWE-3 27 Aug 19:57:52 19:59:02 11° 63° (ENE) 20:00:12 435.000/436.395/437.385
CUBEBUG 2 27 Aug 19:58:15 20:01:19 18° 67° (ENE) 20:04:20 437.445
SEEDS 27 Aug 20:02:08 20:05:49 32° 71° (ENE) 20:09:31 437.485
AIST 1 27 Aug 20:03:31 20:06:31 18° 73° (ENE) 20:09:30
CUBESAT XI-V 27 Aug 20:04:24 20:05:47 11° 298° (WNW) 20:07:09 437.345
CANX-2 27 Aug 20:23:12 20:27:25 83° 260° (W) 20:31:38 2200.000
CUTE 1.7 + AOD 2 27 Aug 20:29:18 20:33:29 82° 255° (WSW) 20:37:43 437.475
AAUSAT CUBESAT 2 27 Aug 20:32:56 20:36:44 38° 72° (ENE) 20:40:33 437.432
DOVE 4 27 Aug 20:37:14 20:40:39 18° 269° (W) 20:44:10 437.250
COMPASS 1 27 Aug 20:40:46 20:44:50 62° 76° (ENE) 20:48:55 437.405
BEESAT 2 27 Aug 20:47:14 20:50:04 19° 249° (WSW) 20:52:54 435.950
PCSat 27 Aug 21:02:28 21:07:30 37° 55° (NE) 21:12:30 145.827
Cosmos 2491 27 Aug 21:07:38 21:12:45 17° 298° (WNW) 21:17:54 435.465 / 435.565
Oscar 11 27 Aug 21:15:52 21:20:00 47° 73° (ENE) 21:24:08 145.826/435.025
CINEMA 3 27 Aug 21:16:44 21:20:37 22° 266° (W) 21:24:30 145.822/145.860
PRISM 27 Aug 21:16:59 21:20:22 23° 96° (E) 21:23:43 437.425
AIST 2 27 Aug 21:20:46 21:24:41 36° 54° (NE) 21:28:33 435.215
FUNcube-1 27 Aug 21:23:17 21:27:38 54° 74° (ENE) 21:31:54 145.935
STRAND 1 27 Aug 21:23:42 21:28:16 34° 291° (WNW) 21:32:50 437.568
UWE-3 27 Aug 21:30:19 21:34:54 73° 259° (W) 21:39:24 435.000/436.395/437.385
CUBEBUG 2 27 Aug 21:33:04 21:37:35 45° 261° (W) 21:42:00 437.445
HO-68 27 Aug 21:35:15 21:41:13 28° 265° (W) 21:47:14 435.675
SEEDS 27 Aug 21:38:37 21:41:34 19° 266° (W) 21:44:31 437.485
AIST 1 27 Aug 21:40:13 21:44:14 35° 269° (W) 21:48:13
ZACube-1 27 Aug 21:44:42 21:49:11 79° 259° (WSW) 21:53:36 437.345
GONETS M04 27 Aug 21:48:27 21:52:35 14° 60° (ENE) 21:56:41
AAUSAT CUBESAT 2 27 Aug 22:09:57 22:12:21 15° 267° (W) 22:14:47 437.432
DELFI C3 27 Aug 22:10:28 22:14:23 84° 75° (ENE) 22:18:21 145.870
HUMSAT D 27 Aug 22:29:55 22:34:03 65° 76° (ENE) 22:38:09 437.325/437.525
AUBIESAT-1 27 Aug 22:35:55 22:39:53 29° 64° (ENE) 22:43:52 437.475
M-CUBED/EXP-1 PRIME 27 Aug 22:41:16 22:45:38 40° 67° (ENE) 22:50:02 437.505
ANTELSAT 27 Aug 22:45:12 22:48:35 22° 95° (E) 22:51:56 437.575/2403.000
Cosmos 2499 27 Aug 22:45:29 22:50:38 21° 69° (ENE) 22:55:46 435.465 / 435.565
PCSat 27 Aug 22:46:08 22:50:44 29° 252° (WSW) 22:55:19 145.827
PRISM 27 Aug 22:52:06 22:55:36 26° 291° (WNW) 22:59:05 437.425
Oscar 11 27 Aug 22:54:14 22:56:22 13° 268° (W) 22:58:31 145.826/435.025
AIST 2 27 Aug 22:59:53 23:02:54 19° 249° (WSW) 23:05:53 435.215
FUNcube-1 27 Aug 23:02:15 23:04:08 12° 269° (W) 23:06:01 145.935
ESTCUBE 1 27 Aug 23:13:43 23:17:41 32° 70° (ENE) 23:21:41 437.505/2401.250
TIGRISAT 27 Aug 23:15:31 23:19:39 47° 99° (E) 23:23:45 435.000
AISAT 27 Aug 23:21:42 23:25:10 23° 68° (ENE) 23:28:39 437.250
UKube-1 27 Aug 23:30:51 23:33:06 14° 64° (ENE) 23:35:23 .
GONETS M04 27 Aug 23:42:11 23:51:06 74° 82° (E) 23:59:54
UNISAT 6 27 Aug 23:44:09 23:48:26 73° 284° (WNW) 23:52:39 437.425
JAS-2 28 Aug 00:01:53 00:06:44 19° 92° (E) 00:11:49 435.910
CUSAT 1 28 Aug 00:02:15 00:05:04 85° 102° (ESE) 00:08:33 437.405
VELOX 1 28 Aug 00:07:55 00:12:19 69° 75° (ENE) 00:16:46 145.980
O/OREOS (USA 219) 28 Aug 00:08:51 00:13:25 58° 67° (ENE) 00:17:56 437.305
CUBEBUG 1 28 Aug 00:09:21 00:13:44 88° 76° (ENE) 00:18:11 437.445
AUBIESAT-1 28 Aug 00:10:13 00:14:13 29° 259° (W) 00:18:14 437.475
SO-50 28 Aug 00:13:01 00:17:53 86° 301° (WNW) 00:22:44 436.795
QB50P1 28 Aug 00:14:45 00:18:31 31° 97° (E) 00:22:15 145.935-145.965
M-CUBED/EXP-1 PRIME 28 Aug 00:16:41 00:20:12 21° 262° (W) 00:23:46 437.505
ANTELSAT 28 Aug 00:21:38 00:25:17 28° 290° (WNW) 00:28:53 437.575/2403.000
DX 1 28 Aug 00:24:23 00:28:43 72° 75° (ENE) 00:33:06 434.975-435.025
POPSAT HIP 1 28 Aug 00:24:38 00:28:36 40° 98° (E) 00:32:33 437.405
SPROUT 28 Aug 00:25:55 00:30:07 53° 74° (ENE) 00:34:19 437.525
50 SAT 28 Aug 00:31:03 00:34:33 54° 259° (W) 00:38:05 437.505
Cosmos 2499 28 Aug 00:37:19 00:44:15 62° 267° (W) 00:51:16 435.465 / 435.565
RS-15 28 Aug 00:39:58 00:49:49 35° 105° (ESE) 01:00:05 29.354- 29.394
TISAT 1 28 Aug 00:45:23 00:48:20 19° 67° (ENE) 00:51:19 437.305
ESTCUBE 1 28 Aug 00:51:05 00:54:31 21° 266° (W) 00:57:58 437.505/2401.250
DUCHIFAT 1 28 Aug 00:51:52 00:56:04 77° 102° (ESE) 01:00:13 145.980
TIGRISAT 28 Aug 00:53:41 00:55:55 14° 295° (WNW) 00:58:09 435.000
QB50P2 28 Aug 00:54:56 00:59:11 80° 283° (WNW) 01:03:22 145.880/145.840
POLYITAN 1 28 Aug 00:57:28 01:01:41 78° 285° (WNW) 01:05:52 437.675
AISAT 28 Aug 00:57:30 01:01:27 31° 263° (W) 01:05:26 437.250
DANDE 28 Aug 01:02:11 01:04:42 49° 282° (WNW) 01:07:23 436.750
UKube-1 28 Aug 01:04:30 01:08:42 50° 260° (W) 01:12:56 .
NANOSAT C BR1 28 Aug 01:05:51 01:10:02 67° 285° (WNW) 01:14:11 145.865
ITUPSAT 1 28 Aug 01:30:54 01:32:49 12° 62° (ENE) 01:34:43 437.325
GONETS M04 28 Aug 01:40:40 01:46:55 22° 280° (W) 01:53:09
JAS-2 28 Aug 01:45:15 01:52:07 76° 285° (WNW) 01:59:42 435.910
BUGSAT 1 28 Aug 01:45:57 01:50:02 59° 285° (WNW) 01:54:02 437.445
Oscar 19 28 Aug 01:48:07 01:52:17 24° 95° (E) 01:56:24 437.125/150
O/OREOS (USA 219) 28 Aug 01:50:22 01:52:15 12° 262° (W) 01:54:08 437.305
QB50P1 28 Aug 01:50:59 01:54:05 20° 292° (WNW) 01:57:09 145.935-145.965
SO-50 28 Aug 01:56:40 01:59:04 14° 319° (NW) 02:01:27 436.795
SWISSCUBE 28 Aug 02:01:19 02:05:21 28° 68° (ENE) 02:09:24 437.505
POPSAT HIP 1 28 Aug 02:01:26 02:04:02 16° 294° (WNW) 02:06:39 437.405
SPROUT 28 Aug 02:04:35 02:06:20 12° 269° (W) 02:08:07 437.525
BEESAT 28 Aug 02:18:01 02:22:23 38° 70° (ENE) 02:26:45 436.000
TISAT 1 28 Aug 02:19:49 02:23:43 35° 262° (W) 02:27:38 437.305
PHONESAT 2.4 28 Aug 02:22:58 02:25:52 48° 159° (SSE) 02:28:48 2401.200-2431.200
RS-15 28 Aug 02:49:58 03:01:25 66° 306° (NW) 03:13:34 29.354- 29.394
Gurwin Techsat 1B 28 Aug 03:00:38 03:05:52 54° 101° (E) 03:11:02 435.225
ITAMSAT 1 28 Aug 03:03:51 03:06:58 16° 92° (E) 03:10:06 435.822/435.867
ITUPSAT 1 28 Aug 03:05:17 03:10:01 71° 258° (WSW) 03:14:47 437.325
Oscar 19 28 Aug 03:26:52 03:31:41 39° 290° (WNW) 03:36:27 437.125/150
JAS-2 28 Aug 03:33:00 03:36:14 14° 301° (WNW) 03:39:36 435.910
SWISSCUBE 28 Aug 03:39:01 03:43:04 28° 264° (W) 03:47:08 437.505
AO-7 28 Aug 03:53:02 03:59:52 28° 96° (E) 04:06:37 29.400- 29.500
KKS-1 28 Aug 03:56:12 04:00:26 43° 72° (ENE) 04:04:42 437.445
BEESAT 28 Aug 03:56:42 04:00:15 21° 266° (W) 04:03:49 436.000
PHONESAT 2.4 28 Aug 03:59:14 04:02:12 62° 354° (N) 04:05:11 2401.200-2431.200
MOZHAYETS 4 28 Aug 04:04:49 04:09:21 69° 75° (ENE) 04:13:53
AO-85 28 Aug 04:15:26 04:16:36 11° 106° (ESE) 04:17:45 145.980
STARS 28 Aug 04:30:48 04:35:06 50° 73° (ENE) 04:39:24 437.465
ITAMSAT 1 28 Aug 04:41:43 04:46:47 56° 287° (WNW) 04:51:50 435.822/435.867
Gurwin Techsat 1B 28 Aug 04:41:44 04:45:21 19° 296° (WNW) 04:48:57 435.225
RS-15 28 Aug 05:07:42 05:16:56 25° 335° (NNW) 05:26:28 29.354- 29.394
HORYU 2 28 Aug 05:12:18 05:14:34 14° 92° (E) 05:16:48 437.375
Cosmos 2491 28 Aug 05:18:02 05:26:26 45° 75° (ENE) 05:34:47 435.465 / 435.565
CUBESAT XI-V 28 Aug 05:26:05 05:30:37 62° 75° (ENE) 05:35:11 437.345
KKS-1 28 Aug 05:34:25 05:37:12 16° 267° (W) 05:39:59 437.445
PHONESAT 2.4 28 Aug 05:35:42 05:38:42 76° 11° (N) 05:41:41 2401.200-2431.200
BRITE-PL 28 Aug 05:44:06 05:47:48 18° 90° (E) 05:51:25 437.365/2234.400
AO-7 28 Aug 05:44:54 05:53:02 62° 293° (WNW) 06:01:08 29.400- 29.500
MOZHAYETS 4 28 Aug 05:46:38 05:46:57 10° 270° (W) 05:47:15
AO-85 28 Aug 05:51:05 05:56:26 88° 123° (ESE) 06:01:31 145.980
STARS 28 Aug 06:09:29 06:11:43 14° 268° (W) 06:13:57 437.465
Cosmos 2504 28 Aug 06:26:56 06:31:51 17° 80° (E) 06:36:35 435.465 / 435.565
YUBILEINY 28 Aug 06:29:36 06:38:08 57° 90° (E) 06:46:41 435.215
NOAA 18 28 Aug 06:31:33 06:35:01 17° 93° (E) 06:38:27 137.9125
HORYU 2 28 Aug 06:47:07 06:51:22 49° 288° (WNW) 06:55:37 437.375
LilacSat-2 28 Aug 06:51:26 06:54:38 26° 96° (E) 06:57:48 437.200
GOMX 1 28 Aug 06:54:38 06:59:34 35° 95° (E) 07:04:14 467.674
STRAND 1 28 Aug 06:59:22 07:03:54 33° 69° (ENE) 07:08:26 437.568
DOVE 4 28 Aug 06:59:45 07:02:50 16° 90° (E) 07:05:48 437.250
CUBESAT XI-V 28 Aug 07:06:47 07:08:23 12° 270° (W) 07:10:01 437.345
PHONESAT 2.4 28 Aug 07:12:15 07:14:54 28° 207° (SSW) 07:17:31 2401.200-2431.200
Cubesat XI-IV 28 Aug 07:13:52 07:19:01 49° 100° (E) 07:24:09 437.490
Cosmos 2491 28 Aug 07:15:11 07:23:02 38° 274° (W) 07:30:54 435.465 / 435.565
BRITE-PL 28 Aug 07:21:00 07:26:38 62° 286° (WNW) 07:32:06 437.365/2234.400
NOAA 15 28 Aug 07:24:49 07:30:10 82° 104° (ESE) 07:35:29 137.62
CUTE-I 28 Aug 07:25:27 07:30:45 64° 102° (ESE) 07:36:01 437.470
RS-15 28 Aug 07:27:23 07:35:45 20° 12° (NNE) 07:44:11 29.354- 29.394
AO-85 28 Aug 07:34:28 07:37:30 15° 317° (NW) 07:40:26 145.980
AO-7 28 Aug 07:40:45 07:44:08 13° 313° (NW) 07:47:32 29.400- 29.500
PRISM 28 Aug 08:06:10 08:08:28 15° 65° (ENE) 08:10:46 437.425
CANX-2 28 Aug 08:10:24 08:13:21 18° 93° (E) 08:16:19 2200.000
NOAA 18 28 Aug 08:10:40 08:16:02 58° 288° (WNW) 08:21:21 137.9125
Cosmos 2504 28 Aug 08:15:44 08:24:16 85° 277° (W) 08:32:14 435.465 / 435.565
CUTE 1.7 + AOD 2 28 Aug 08:16:22 08:19:20 18° 94° (E) 08:22:19 437.475
LilacSat-2 28 Aug 08:26:04 08:28:45 19° 291° (WNW) 08:31:25 437.200
COMPASS 1 28 Aug 08:27:16 08:28:24 11° 91° (E) 08:29:32 437.405
YUBILEINY 28 Aug 08:27:49 08:35:19 31° 290° (WNW) 08:42:53 435.215
ISS 28 Aug 08:32:17 08:35:24 42° 136° (SE) 08:38:32 145.825
GOMX 1 28 Aug 08:32:55 08:37:26 28° 293° (WNW) 08:41:46 467.674
AIST 1 28 Aug 08:33:42 08:34:42 11° 84° (E) 08:35:42
DOVE 4 28 Aug 08:35:59 08:40:52 50° 287° (WNW) 08:45:27 437.250
STRAND 1 28 Aug 08:38:47 08:43:03 27° 264° (W) 08:47:21 437.568
SO-50 28 Aug 08:45:58 08:50:31 56° 56° (NE) 08:54:54 436.795
Cubesat XI-IV 28 Aug 08:54:52 08:58:42 21° 296° (WNW) 09:02:32 437.490
HO-68 28 Aug 09:02:45 09:09:52 62° 102° (ESE) 09:16:55 435.675
NOAA 15 28 Aug 09:06:53 09:09:13 13° 300° (WNW) 09:11:31 137.62
CUTE-I 28 Aug 09:07:04 09:10:13 16° 298° (WNW) 09:13:22 437.470
CINEMA 3 28 Aug 09:11:56 09:16:27 74° 285° (WNW) 09:20:44 145.822/145.860
FUNcube-1 28 Aug 09:15:46 09:16:11 10° 90° (E) 09:16:37 145.935
BEESAT 3 28 Aug 09:16:30 09:19:39 24° 113° (ESE) 09:22:50 437.485
UWE-3 28 Aug 09:22:05 09:25:24 23° 95° (E) 09:28:40 435.000/436.395/437.385
SEEDS 28 Aug 09:22:09 09:26:23 77° 102° (ESE) 09:30:35 437.485
CUBEBUG 2 28 Aug 09:25:26 09:29:24 38° 98° (E) 09:33:16 437.445
ZACube-1 28 Aug 09:35:15 09:38:20 20° 94° (E) 09:41:24 437.345
PRISM 28 Aug 09:39:30 09:43:23 42° 261° (W) 09:47:19 437.425
RS-15 28 Aug 09:41:12 09:52:52 44° 44° (NE) 10:04:21 29.354- 29.394
ANTELSAT 28 Aug 09:42:56 09:46:12 19° 67° (ENE) 09:49:24 437.575/2403.000
CANX-2 28 Aug 09:45:27 09:49:17 34° 288° (WNW) 09:53:07 2200.000
DELFI C3 28 Aug 09:51:18 09:52:45 12° 91° (E) 09:54:12 145.870
AAUSAT CUBESAT 2 28 Aug 09:51:19 09:55:30 89° 100° (E) 09:59:40 437.432
CUTE 1.7 + AOD 2 28 Aug 09:51:25 09:55:14 33° 289° (WNW) 09:59:04 437.475
DANDE 28 Aug 09:57:55 09:59:14 11° 70° (ENE) 10:00:36 436.750
COMPASS 1 28 Aug 10:00:10 10:04:16 55° 285° (WNW) 10:08:22 437.405
AIST 1 28 Aug 10:07:26 10:11:42 57° 279° (W) 10:16:02
ISS 28 Aug 10:09:16 10:11:58 23° 333° (NNW) 10:14:43 145.825
TIGRISAT 28 Aug 10:12:32 10:16:45 37° 72° (ENE) 10:20:55 435.000
Cosmos 2504 28 Aug 10:14:06 10:18:40 16° 295° (WNW) 10:23:07 435.465 / 435.565
HUMSAT D 28 Aug 10:17:02 10:18:06 11° 91° (E) 10:19:09 437.325/437.525
SO-50 28 Aug 10:28:05 10:30:26 14° 252° (WSW) 10:32:46 436.795
CUSAT 1 28 Aug 10:32:53 10:39:25 60° 79° (E) 10:47:07 437.405
BEESAT 2 28 Aug 10:36:28 10:40:24 80° 301° (WNW) 10:44:24 435.950
Oscar 11 28 Aug 10:40:06 10:44:24 68° 284° (WNW) 10:48:40 145.826/435.025
UNISAT 6 28 Aug 10:40:58 10:45:35 82° 78° (ENE) 10:50:08 437.425
FUNcube-1 28 Aug 10:48:43 10:52:47 56° 285° (WNW) 10:56:49 145.935
GONETS M04 28 Aug 10:49:39 10:54:17 16° 77° (ENE) 10:58:58
HO-68 28 Aug 10:51:27 10:57:01 25° 300° (WNW) 11:02:34 435.675
BEESAT 3 28 Aug 10:53:51 10:57:12 27° 309° (NW) 11:00:36 437.485
UWE-3 28 Aug 10:58:21 11:01:49 26° 290° (WNW) 11:05:14 435.000/436.395/437.385
CUBEBUG 2 28 Aug 11:03:05 11:05:41 16° 294° (WNW) 11:08:16 437.445
QB50P1 28 Aug 11:06:16 11:09:28 21° 68° (ENE) 11:12:41 145.935-145.965
ZACube-1 28 Aug 11:11:03 11:14:38 29° 289° (WNW) 11:18:13 437.345
POPSAT HIP 1 28 Aug 11:15:56 11:19:30 26° 69° (ENE) 11:23:04 437.405
ANTELSAT 28 Aug 11:18:18 11:22:37 39° 262° (W) 11:26:52 437.575/2403.000
Cosmos 2499 28 Aug 11:21:35 11:26:51 19° 82° (E) 11:31:54 435.465 / 435.565
DELFI C3 28 Aug 11:23:59 11:27:50 47° 286° (WNW) 11:31:41 145.870
DANDE 28 Aug 11:36:39 11:42:15 78° 81° (E) 11:49:34 436.750
DUCHIFAT 1 28 Aug 11:42:06 11:46:09 46° 73° (ENE) 11:50:14 145.980
PCSat 28 Aug 11:42:37 11:47:42 44° 112° (ESE) 11:52:50 145.827
QB50P2 28 Aug 11:45:47 11:50:00 63° 74° (ENE) 11:54:14 145.880/145.840
POLYITAN 1 28 Aug 11:48:17 11:52:31 64° 75° (ENE) 11:56:46 437.675
HUMSAT D 28 Aug 11:50:02 11:54:00 52° 286° (WNW) 11:57:59 437.325/437.525
TIGRISAT 28 Aug 11:50:11 11:53:31 20° 266° (W) 11:56:49 435.000
AUBIESAT-1 28 Aug 11:51:00 11:54:00 21° 98° (E) 11:56:50 437.475
RS-15 28 Aug 11:53:53 12:05:57 62° 248° (WSW) 12:17:43 29.354- 29.394
NANOSAT C BR1 28 Aug 11:56:07 12:00:22 73° 76° (ENE) 12:04:37 145.865
M-CUBED/EXP-1 PRIME 28 Aug 11:56:58 12:00:36 31° 101° (E) 12:03:56 437.505
JAS-2 28 Aug 11:57:36 12:02:21 37° 68° (ENE) 12:07:22 435.910
CUBEBUG 1 28 Aug 12:00:18 12:03:20 18° 93° (E) 12:06:20 437.445
VELOX 1 28 Aug 12:00:51 12:03:17 14° 92° (E) 12:05:44 145.980
50 SAT 28 Aug 12:02:06 12:03:39 12° 93° (E) 12:05:11 437.505
DX 1 28 Aug 12:15:34 12:17:46 14° 92° (E) 12:19:57 434.975-435.025
CUSAT 1 28 Aug 12:15:48 12:21:08 25° 271° (W) 12:27:07 437.405
BUGSAT 1 28 Aug 12:33:38 12:37:52 77° 76° (ENE) 12:42:08 437.445
GONETS M04 28 Aug 12:40:57 12:49:42 87° 97° (E) 12:58:35
QB50P1 28 Aug 12:41:14 12:45:02 31° 263° (W) 12:48:51 145.935-145.965
ESTCUBE 1 28 Aug 12:43:26 12:48:01 86° 103° (ESE) 12:52:34 437.505/2401.250
AISAT 28 Aug 12:48:22 12:52:44 52° 100° (E) 12:57:04 437.250
POPSAT HIP 1 28 Aug 12:51:41 12:55:12 24° 264° (W) 12:58:44 437.405
UKube-1 28 Aug 12:53:07 12:56:52 28° 97° (E) 13:00:34 .
AIST 2 28 Aug 12:54:48 12:58:52 68° 302° (WNW) 13:03:00 435.215
Oscar 19 28 Aug 13:03:35 13:08:03 31° 68° (ENE) 13:12:33 437.125/150
JUGNU 28 Aug 13:10:35 13:12:30 12° 182° (S) 13:14:24 437.505
Cosmos 2499 28 Aug 13:10:59 13:19:12 75° 278° (W) 13:26:49 435.465 / 435.565
DUCHIFAT 1 28 Aug 13:19:53 13:22:04 14° 268° (W) 13:24:16 145.980
DANDE 28 Aug 13:21:26 13:24:47 15° 271° (W) 13:28:32 436.750
AUBIESAT-1 28 Aug 13:25:05 13:28:28 26° 296° (WNW) 13:31:37 437.475
ISS 28 Aug 13:26:05 13:27:07 11° 13° (NNE) 13:28:09 145.825
QB50P2 28 Aug 13:26:06 13:26:10 10° 270° (W) 13:26:15 145.880/145.840
PCSat 28 Aug 13:26:44 13:31:16 26° 309° (NW) 13:35:48 145.827
M-CUBED/EXP-1 PRIME 28 Aug 13:31:57 13:34:51 19° 299° (WNW) 13:37:37 437.505
50 SAT 28 Aug 13:33:59 13:37:21 36° 287° (WNW) 13:40:44 437.505
CUBEBUG 1 28 Aug 13:35:38 13:39:44 38° 288° (WNW) 13:43:48 437.445
VELOX 1 28 Aug 13:35:42 13:40:00 48° 287° (WNW) 13:44:16 145.980
JAS-2 28 Aug 13:43:30 13:47:37 24° 267° (W) 13:51:56 435.910
SPROUT 28 Aug 13:48:51 13:53:06 64° 284° (WNW) 13:57:18 437.525
DX 1 28 Aug 13:49:58 13:54:13 49° 287° (WNW) 13:58:25 434.975-435.025
TISAT 1 28 Aug 14:04:48 14:08:41 36° 98° (E) 14:12:32 437.305
RS-15 28 Aug 14:12:52 14:15:43 11° 267° (W) 14:18:33 29.354- 29.394
O/OREOS (USA 219) 28 Aug 14:19:35 14:24:04 89° 126° (SE) 14:28:36 437.305
Gurwin Techsat 1B 28 Aug 14:20:18 14:25:35 75° 75° (ENE) 14:30:55 435.225
ITAMSAT 1 28 Aug 14:20:19 14:24:18 23° 65° (ENE) 14:28:17 435.822/435.867
AO-85 28 Aug 14:24:54 14:29:01 47° 54° (NE) 14:32:51 145.980
AISAT 28 Aug 14:26:20 14:28:44 14° 296° (WNW) 14:31:07 437.250
UKube-1 28 Aug 14:29:16 14:32:46 24° 292° (WNW) 14:36:14 .
GONETS M04 28 Aug 14:42:00 14:47:43 19° 296° (WNW) 14:53:31
Oscar 19 28 Aug 14:42:48 14:47:17 30° 264° (W) 14:51:50 437.125/150
SRMSAT 28 Aug 14:49:23 14:51:12 11° 178° (S) 14:53:01 437.500
AO-7 28 Aug 14:50:33 14:57:54 36° 60° (ENE) 15:05:14 29.400- 29.500
ISS 28 Aug 15:01:16 15:04:21 36° 32° (NNE) 15:07:24 145.825
ITUPSAT 1 28 Aug 15:07:19 15:11:35 32° 97° (E) 15:15:50 437.325
Cosmos 2499 28 Aug 15:10:31 15:13:29 12° 297° (WNW) 15:16:25 435.465 / 435.565
SWISSCUBE 28 Aug 15:39:29 15:44:17 81° 103° (ESE) 15:49:03 437.505
TISAT 1 28 Aug 15:41:14 15:44:03 18° 293° (WNW) 15:46:50 437.305
BEESAT 28 Aug 15:56:33 16:01:18 75° 285° (WNW) 16:06:03 436.000
ITAMSAT 1 28 Aug 15:58:36 16:03:29 42° 261° (W) 16:08:23 435.822/435.867
MOZHAYETS 4 28 Aug 16:02:07 16:05:14 18° 93° (E) 16:08:19
Gurwin Techsat 1B 28 Aug 16:04:03 16:06:04 12° 270° (W) 16:08:06 435.225
AO-85 28 Aug 16:06:56 16:08:55 13° 252° (WSW) 16:10:50 145.980
HORYU 2 28 Aug 16:10:01 16:11:44 12° 63° (ENE) 16:13:29 437.375
ISS 28 Aug 16:38:02 16:40:40 22° 228° (SW) 16:43:16 145.825
YUBILEINY 28 Aug 16:42:11 16:49:09 26° 68° (ENE) 16:56:02 435.215
AO-7 28 Aug 16:42:17 16:50:21 51° 258° (WSW) 16:58:27 29.400- 29.500
ITUPSAT 1 28 Aug 16:45:23 16:49:15 25° 293° (WNW) 16:53:07 437.325
BRITE-PL 28 Aug 16:54:09 16:57:02 16° 62° (ENE) 17:00:04 437.365/2234.400
NOAA 15 28 Aug 17:07:01 17:09:43 14° 61° (ENE) 17:12:24 137.62
CUTE-I 28 Aug 17:10:12 17:12:00 12° 59° (ENE) 17:13:48 437.470
SWISSCUBE 28 Aug 17:20:13 17:21:22 11° 299° (WNW) 17:22:30 437.505
KKS-1 28 Aug 17:24:35 17:29:02 76° 286° (WNW) 17:33:29 437.445
CUBESAT XI-V 28 Aug 17:24:56 17:28:05 17° 93° (E) 17:31:12 437.345
LilacSat-2 28 Aug 17:33:50 17:35:20 12° 66° (ENE) 17:36:50 437.200
BEESAT 3 28 Aug 17:35:37 17:37:16 12° 43° (NE) 17:38:55 437.485
MOZHAYETS 4 28 Aug 17:38:15 17:42:32 40° 288° (WNW) 17:46:49
HORYU 2 28 Aug 17:43:19 17:47:45 64° 258° (WSW) 17:52:11 437.375
NOAA 18 28 Aug 17:55:58 18:00:43 30° 66° (ENE) 18:05:28 137.9125
STARS 28 Aug 17:57:34 18:01:56 68° 285° (WNW) 18:06:16 437.465
GOMX 1 28 Aug 18:00:50 18:05:21 32° 69° (ENE) 18:10:05 467.674
DOVE 4 28 Aug 18:03:34 18:06:47 17° 64° (ENE) 18:10:04 437.250
Cosmos 2504 28 Aug 18:10:53 18:17:00 29° 72° (ENE) 18:23:03 435.465 / 435.565
Cosmos 2491 28 Aug 18:17:15 18:25:37 54° 90° (E) 18:34:03 435.465 / 435.565
BRITE-PL 28 Aug 18:30:06 18:34:51 61° 261° (W) 18:40:03 437.365/2234.400
Cubesat XI-IV 28 Aug 18:34:26 18:39:45 72° 74° (ENE) 18:45:05 437.490
